Weather History for Fallon NAS, NV

Change the Weather History Date:

Thursday, May 16, 2013

  Actual Average Record
Temperature  
Mean Temperature 60 °F -  
Max Temperature 68 °F 74 °F 93 °F (2006)
Min Temperature 54 °F 40 °F 28 °F (1984)
Degree Days  
Heating Degree Days 5    
Growing Degree Days 10 (Base 50)    
Moisture  
Dew Point 37 °F    
Average Humidity 43    
Maximum Humidity 62    
Minimum Humidity 30    
Precipitation  
Precipitation 0.00 in - - ()
Sea Level Pressure  
Sea Level Pressure 29.87 in    
Wind  
Wind Speed 6 mph (West)    
Max Wind Speed 18 mph    
Max Gust Speed 26 mph    
Visibility 10 miles    
Events Rain    
Averages and records for this station are not official NWS values.
T = Trace of Precipitation, MM = Missing Value Source: NWS Daily Summary

Daily Weather History Graph

Daily Weather History Graph

Search for Another Location

Airport:

Trip Planner

Search our weather history database for the weather conditions in past years. The results will help you decide how hot, cold, wet, or windy it might be!

Date:

Astronomy

May. 16, 2013 Rise Set
Actual Time 5:39 AM PDT 8:03 PM PDT
Civil Twilight 5:09 AM PDT 8:33 PM PDT
Nautical Twilight 4:31 AM PDT 9:11 PM PDT
Astronomical Twilight 3:50 AM PDT 9:53 PM PDT
Moon 11:17 AM PDT (5/16) 12:27 AM PDT (5/16)
Length of Visible Light 15h 24m
Length of Day
14h 23m
Waxing Crescent, 36% of the Moon is Illuminated
May 16
Waxing Crescent
May 17
First Quarter
May 24
Full
May 31
Last Quarter
Jun 8
New

Hourly Weather History & Observations

Time (PDT) Temp. Dew Point Humidity Pressure Visibility Wind Dir Wind Speed Gust Speed Precip Events Conditions
12:56 AM 62.1 °F 30.0 °F 30% 29.90 in 10.0 mi SSW 5.8 mph - N/A   Clear
1:56 AM 57.9 °F 28.9 °F 33% 29.89 in 10.0 mi SW 9.2 mph - N/A   Clear
2:56 AM 57.0 °F 32.0 °F 39% 29.88 in 10.0 mi West 9.2 mph - N/A   Clear
3:56 AM 57.9 °F 35.1 °F 42% 29.88 in 10.0 mi West 6.9 mph - N/A   Clear
4:56 AM 54.0 °F 33.1 °F 45% 29.87 in 10.0 mi South 3.5 mph - N/A   Clear
5:56 AM 55.0 °F 30.9 °F 40% 29.87 in 10.0 mi SSE 3.5 mph - N/A   Mostly Cloudy
6:17 AM 55.4 °F 30.2 °F 38% 29.95 in 10.0 mi Calm Calm - N/A   Overcast
6:56 AM 57.0 °F 32.0 °F 39% 29.87 in 10.0 mi Calm Calm - N/A   Overcast
7:20 AM 57.2 °F 30.2 °F 36% 29.94 in 10.0 mi NE 4.6 mph - 0.00 in Rain Light Rain
7:38 AM 59.0 °F 30.2 °F 34% 29.95 in 10.0 mi Calm Calm - 0.00 in   Overcast
7:56 AM 61.0 °F 32.0 °F 34% 29.86 in 10.0 mi West 3.5 mph - 0.00 in   Overcast
8:56 AM 63.0 °F 33.1 °F 33% 29.87 in 10.0 mi West 3.5 mph - N/A   Overcast
9:56 AM 64.0 °F 32.0 °F 30% 29.86 in 10.0 mi West 4.6 mph - N/A   Overcast
10:56 AM 63.0 °F 35.1 °F 35% 29.86 in 10.0 mi WNW 11.5 mph - N/A   Overcast
11:56 AM 66.0 °F 36.0 °F 33% 29.85 in 10.0 mi WNW 13.8 mph 20.7 mph N/A   Overcast
12:56 PM 66.9 °F 35.1 °F 31% 29.84 in 10.0 mi West 16.1 mph - N/A   Overcast
1:22 PM 66.2 °F 37.4 °F 35% 29.91 in 10.0 mi West 18.4 mph 26.5 mph 0.00 in Rain Light Rain
1:56 PM 66.0 °F 37.9 °F 36% 29.84 in 10.0 mi West 16.1 mph 20.7 mph 0.00 in Rain Light Rain
2:56 PM 63.0 °F 39.9 °F 43% 29.85 in 10.0 mi West 11.5 mph - 0.00 in Rain Light Rain
3:56 PM 59.0 °F 45.0 °F 60% 29.85 in 10.0 mi West 5.8 mph - 0.00 in Rain Light Rain
4:30 PM 60.8 °F 46.4 °F 59% 29.91 in 10.0 mi Variable 4.6 mph - 0.00 in   Overcast
4:56 PM 62.1 °F 43.0 °F 50% 29.83 in 10.0 mi Variable 3.5 mph - 0.00 in   Overcast
5:56 PM 63.0 °F 42.1 °F 46% 29.81 in 10.0 mi Variable 3.5 mph - N/A   Mostly Cloudy
6:56 PM 62.1 °F 42.1 °F 48% 29.81 in 10.0 mi ENE 3.5 mph - N/A   Overcast
7:07 PM 60.8 °F 44.6 °F 55% 29.89 in 10.0 mi Calm Calm - 0.00 in Rain Light Rain
7:13 PM 60.8 °F 44.6 °F 55% 29.89 in 10.0 mi ENE 3.5 mph - 0.00 in   Overcast
7:56 PM 59.0 °F 46.0 °F 62% 29.83 in 10.0 mi Calm Calm - 0.00 in   Overcast
8:00 PM - - N/A% - - North - - N/A   Unknown
8:56 PM 57.9 °F 44.1 °F 60% 29.84 in 10.0 mi Calm Calm - N/A   Overcast
9:56 PM 57.9 °F 37.0 °F 46% 29.85 in 10.0 mi WNW 11.5 mph - N/A   Mostly Cloudy
10:56 PM 55.9 °F 37.9 °F 51% 29.86 in 10.0 mi NW 3.5 mph - N/A   Overcast
11:56 PM 54.0 °F 36.0 °F 51% 29.86 in 10.0 mi NNW 3.5 mph - N/A   Overcast